星链-11329 (STARLINK-11329)

导读 | 豆包AI

STARLINK-11329是美国SpaceX公司星链星座的成员卫星,于2024年11月9日搭乘猎鹰9号火箭从范登堡太空部队基地发射升空,进入近地轨道。它属于Starlink Group 9-10任务批次,用于为全球提供低延迟、高速率的卫星互联网接入服务,进一步扩充星链星座的覆盖容量与服务能力,助力天地一体化网络建设。

基本信息
目录编号:
61881
目录名称:
STARLINK-11329
国际标识:
2024-204H
轨道中心:
EARTH
卫星名称:
星链-11329
卫星全名:
星链-11329 (STARLINK-11329)
卫星状态:
在轨 (已飞行491 天)
发射日期:
2024-11-09 UTC
国别 :
美国 (US)
星等 :
--
轨道信息
数据来源 国际轨道数据
星历时间: 2026-03-15T05:42:20+0800
11小时前
查看轨道信息
半长轴: 6737.898km
偏心率: 0.0001076
轨道倾角: 53.159°
近地点辐角 24.077°
升交点赤经 330.556°
平近点角 336.030°
近地点: 359.036km
远地点: 360.486km
周期: 91.737分钟
每日圈数: 15.696981
详细信息
固有亮度:
5
最大亮度:
2.5
卫星平台:
Starlink V1.0
覆盖范围:
全球
运营商:
太空探索技术公司
运营商所在国:
美国
制造商(研发单位):
太空探索技术公司
制造商所在国:
美国
使用方式:
暂无
卫星简介
Starlink 计划是 SpaceX 推出的全球卫星互联网项目,通过发射低轨道卫星,为全球尤其是偏远地区提供高速、低延迟的互联网服务。自 2019 年起,Starlink 已部署数千颗卫星,旨在缩小全球数字鸿沟,推动互联网普及。该项目还为军事、航空等行业提供通信支持,带来广泛经济效益。
2D轨道图
3D轨道图
轨道高度分析图
轨道倾角分析图
轨道综合分析图
查看轨道综合分析图